FW5488 Weather Reports


time (UTC)temp
C
wind
direction
speed
KPH
gust
KPH
rain 1hr
cm
rain 24hr
cm
rain mn
cm
humidity
%
barometer
mb
20260508075054 13 96 0.0 0.0 0.00 0.00 0.00 87 1016.5
20260508074554 13 96 0.0 0.0 0.00 0.00 0.00 87 1016.5
20260508074052 13 96 0.0 0.0 0.00 0.00 0.00 87 1016.5
20260508073552 13 96 0.0 0.0 0.00 0.00 0.00 87 1016.5
20260508073053 13 96 0.0 0.0 0.00 0.00 0.00 87 1016.5
20260508072551 13 97 0.0 0.0 0.00 0.00 0.00 86 1016.5
20260508072053 13 96 0.0 1.6 0.00 0.00 0.00 85 1016.5
20260508071550 13 96 0.0 1.6 0.00 0.00 0.00 84 1016.5
20260508071049 13 96 0.0 3.2 0.00 0.00 0.00 84 1016.4
20260508070050 13 96 0.0 1.6 0.00 0.00 0.00 83 1016.5
20260508065553 13 96 0.0 3.2 0.00 0.00 0.00 83 1016.5
20260508065049 14 96 0.0 3.2 0.00 0.00 0.00 82 1016.5
20260508064549 14 96 0.0 3.2 0.00 0.00 0.00 82 1016.5
20260508064048 14 96 0.0 3.2 0.00 0.00 0.00 82 1016.4
20260508063549 14 98 0.0 3.2 0.00 0.00 0.00 82 1016.3
20260508063052 14 99 0.0 1.6 0.00 0.00 0.00 81 1016.3
20260508062548 14 98 0.0 3.2 0.00 0.00 0.00 81 1016.3
20260508062048 14 99 0.0 3.2 0.00 0.00 0.00 81 1016.2
20260508061548 15 98 0.0 1.6 0.00 0.00 0.00 81 1016.2
20260508061048 15 99 0.0 3.2 0.00 0.00 0.00 80 1016.2
20260508060045 15 99 1.6 3.2 0.00 0.00 0.00 80 1016.3
20260508055545 15 99 1.6 3.2 0.00 0.00 0.00 79 1016.4
20260508055044 15 98 1.6 3.2 0.00 0.00 0.00 79 1016.4
20260508054604 15 99 1.6 3.2 0.00 0.00 0.00 79 1016.4
20260508054044 15 99 1.6 4.8 0.00 0.00 0.00 79 1016.4
20260508053544 15 98 3.2 6.4 0.00 0.00 0.00 79 1016.4
20260508053044 15 98 1.6 4.8 0.00 0.00 0.00 79 1016.5
20260508052546 15 98 1.6 4.8 0.00 0.00 0.00 78 1016.4
20260508052042 15 97 1.6 4.8 0.00 0.00 0.00 78 1016.5
20260508051543 15 89 1.6 4.8 0.00 0.00 0.00 78 1016.5
20260508051043 15 89 1.6 4.8 0.00 0.00 0.00 78 1016.4
20260508050543 15 94 0.0 1.6 0.00 0.00 0.00 78 1016.4
20260508050042 16 94 0.0 3.2 0.00 0.00 0.00 77 1016.3
20260508045541 16 93 1.6 3.2 0.00 0.00 0.00 77 1016.3
20260508045042 16 96 0.0 3.2 0.00 0.00 0.00 77 1016.4
20260508044554 16 94 1.6 3.2 0.00 0.00 0.00 77 1016.3
20260508044040 16 95 0.0 4.8 0.00 0.00 0.00 76 1016.4
20260508043043 16 94 1.6 4.8 0.00 0.00 0.00 76 1016.2
20260508042542 16 98 1.6 6.4 0.00 0.00 0.00 76 1016.0
20260508042040 16 84 0.0 3.2 0.00 0.00 0.00 76 1015.9
20260508041550 16 85 1.6 3.2 0.00 0.00 0.00 76 1015.8
20260508041041 16 82 1.6 1.6 0.00 0.00 0.00 76 1015.8
20260508040541 16 82 0.0 3.2 0.00 0.00 0.00 76 1015.7
20260508040045 16 82 1.6 3.2 0.00 0.00 0.00 76 1015.6
20260508035541 16 82 0.0 3.2 0.00 0.00 0.00 76 1015.6
20260508035041 16 82 0.0 3.2 0.00 0.00 0.00 76 1015.5
20260508034541 16 82 0.0 1.6 0.00 0.00 0.00 76 1015.5
20260508034041 16 82 0.0 1.6 0.00 0.00 0.00 75 1015.5
20260508033040 16 82 0.0 1.6 0.00 0.00 0.00 73 1015.4
20260508032543 17 82 0.0 1.6 0.00 0.00 0.00 73 1015.3
20260508032042 17 82 0.0 3.2 0.00 0.00 0.00 72 1015.3
20260508031554 17 82 1.6 3.2 0.00 0.00 0.00 72 1015.2
20260508031040 17 82 0.0 3.2 0.00 0.00 0.00 72 1015.2
20260508030540 17 82 0.0 4.8 0.00 0.00 0.00 71 1015.1
20260508030051 17 92 1.6 4.8 0.00 0.00 0.00 71 1015.1
20260508025538 17 122 0.0 3.2 0.00 0.00 0.00 70 1014.9
20260508025044 17 123 0.0 3.2 0.00 0.00 0.00 70 1014.9
20260508024541 18 123 0.0 6.4 0.00 0.00 0.00 70 1014.9
20260508024039 18 122 0.0 6.4 0.00 0.00 0.00 69 1014.8
20260508023046 18 162 1.6 6.4 0.00 0.00 0.00 67 1014.6
20260508022540 19 145 1.6 4.8 0.00 0.00 0.00 66 1014.6
20260508022041 20 155 1.6 6.4 0.00 0.00 0.00 66 1014.6
20260508021541 20 128 0.0 4.8 0.00 0.00 0.00 66 1014.5
20260508021040 20 131 1.6 4.8 0.00 0.00 0.00 65 1014.4
20260508020541 20 128 1.6 6.4 0.00 0.00 0.00 64 1014.4
20260508020040 20 131 1.6 6.4 0.00 0.00 0.00 64 1014.4
20260508015541 21 139 1.6 4.8 0.00 0.00 0.00 63 1014.3
20260508015040 21 121 1.6 4.8 0.00 0.00 0.00 62 1014.3
20260508014540 21 113 1.6 6.4 0.00 0.00 0.00 61 1014.3
20260508014040 21 223 1.6 8.0 0.00 0.00 0.00 61 1014.3
20260508013041 22 82 3.2 8.0 0.00 0.00 0.00 60 1014.3
20260508012541 22 113 3.2 9.7 0.00 0.00 0.00 59 1014.4
20260508012046 22 110 1.6 6.4 0.00 0.00 0.00 59 1014.4
20260508011544 22 163 0.0 6.4 0.00 0.00 0.00 59 1014.4
20260508011041 22 79 1.6 8.0 0.00 0.00 0.00 58 1014.4
20260508010540 22 113 1.6 8.0 0.00 0.00 0.00 58 1014.4
20260508010044 22 148 3.2 8.0 0.00 0.00 0.00 57 1014.4
20260508005541 23 215 1.6 8.0 0.00 0.00 0.00 58 1014.3
20260508005042 23 97 3.2 8.0 0.00 0.00 0.00 57 1014.4
20260508004540 23 131 1.6 9.7 0.00 0.00 0.00 57 1014.3
20260508004043 23 81 3.2 9.7 0.00 0.00 0.00 56 1014.4
20260508003036 23 113 3.2 9.7 0.00 0.00 0.00 56 1014.3
20260508002536 23 142 1.6 9.7 0.00 0.00 0.00 56 1014.3
20260508002038 23 123 3.2 8.0 0.00 0.00 0.00 55 1014.3
20260508001540 23 103 3.2 9.7 0.00 0.00 0.00 55 1014.2
20260508001036 23 215 4.8 9.7 0.00 0.00 0.00 55 1014.3
20260508000534 23 195 3.2 8.0 0.00 0.00 0.00 54 1014.3
20260508000035 23 117 1.6 8.0 0.00 0.00 0.00 55 1014.4
20260507235534 23 128 3.2 8.0 0.00 0.00 0.00 55 1014.5
20260507235034 23 107 3.2 9.7 0.00 0.00 0.00 55 1014.5
20260507234539 23 160 3.2 9.7 0.00 0.00 0.00 55 1014.5
20260507234034 23 102 4.8 9.7 0.00 0.00 0.00 55 1014.5
20260507233040 23 110 1.6 12.9 0.00 0.00 0.00 57 1014.4
20260507232541 23 118 6.4 12.9 0.00 0.00 0.00 56 1014.5
20260507232037 23 117 1.6 12.9 0.00 0.00 0.00 56 1014.4
20260507231547 23 120 4.8 12.9 0.00 0.00 0.00 56 1014.5
20260507231037 23 171 3.2 11.3 0.00 0.00 0.00 55 1014.5
20260507230541 24 100 4.8 9.7 0.00 0.00 0.00 55 1014.5
20260507230040 24 110 4.8 11.3 0.00 0.00 0.00 54 1014.5
20260507225538 24 136 3.2 11.3 0.00 0.00 0.00 55 1014.5
20260507225036 24 225 3.2 12.9 0.00 0.00 0.00 54 1014.5
20260507224550 24 113 4.8 12.9 0.00 0.00 0.00 54 1014.6
20260507224035 24 131 4.8 11.3 0.00 0.00 0.00 54 1014.6
20260507223029 25 104 4.8 11.3 0.00 0.00 0.00 53 1014.7
20260507222529 25 101 4.8 11.3 0.00 0.00 0.00 53 1014.7
20260507222028 25 85 4.8 11.3 0.00 0.00 0.00 53 1014.7
20260507221535 25 92 8.0 11.3 0.00 0.00 0.00 52 1014.7
20260507221030 25 131 4.8 9.7 0.00 0.00 0.00 52 1014.8
20260507220527 25 172 3.2 9.7 0.00 0.00 0.00 53 1014.8
20260507220031 25 98 1.6 9.7 0.00 0.00 0.00 53 1014.9
20260507215528 25 131 4.8 9.7 0.00 0.00 0.00 53 1014.9
20260507215025 25 142 3.2 9.7 0.00 0.00 0.00 52 1014.9
20260507214532 25 126 4.8 9.7 0.00 0.00 0.00 53 1015.0
20260507214025 25 128 4.8 11.3 0.00 0.00 0.00 52 1015.1
20260507213031 25 86 6.4 14.5 0.00 0.00 0.00 52 1015.2
20260507212523 25 162 4.8 12.9 0.00 0.00 0.00 52 1015.2
20260507212023 25 217 4.8 14.5 0.00 0.00 0.00 52 1015.2
20260507211523 25 187 4.8 14.5 0.00 0.00 0.00 52 1015.2
20260507211021 25 167 3.2 12.9 0.00 0.00 0.00 53 1015.3
20260507210523 25 156 3.2 12.9 0.00 0.00 0.00 53 1015.4
20260507210042 25 103 3.2 9.7 0.00 0.00 0.00 51 1015.4
20260507205520 25 129 4.8 11.3 0.00 0.00 0.00 51 1015.4
20260507205020 25 129 3.2 14.5 0.00 0.00 0.00 52 1015.5
20260507204519 25 97 4.8 9.7 0.00 0.00 0.00 51 1015.5
20260507204018 25 71 3.2 12.9 0.00 0.00 0.00 52 1015.6
20260507203022 25 128 4.8 12.9 0.00 0.00 0.00 52 1015.6
20260507202517 25 111 4.8 11.3 0.00 0.00 0.00 51 1015.6
20260507202020 25 96 6.4 11.3 0.00 0.00 0.00 50 1015.6
20260507201518 25 117 4.8 11.3 0.00 0.00 0.00 51 1015.8
20260507201020 25 219 1.6 11.3 0.00 0.00 0.00 52 1015.8
20260507200516 25 152 1.6 11.3 0.00 0.00 0.00 51 1015.9
20260507200022 25 179 1.6 9.7 0.00 0.00 0.00 51 1015.9
20260507195512 25 114 1.6 9.7 0.00 0.00 0.00 51 1016.2
20260507195017 25 123 4.8 12.9 0.00 0.00 0.00 52 1016.1
20260507194512 25 119 6.4 12.9 0.00 0.00 0.00 51 1016.1
20260507194010 25 128 3.2 11.3 0.00 0.00 0.00 51 1016.1
20260507193018 25 140 4.8 11.3 0.00 0.00 0.00 52 1016.3
20260507192510 25 163 3.2 12.9 0.00 0.00 0.00 52 1016.3
20260507192007 24 221 0.0 8.0 0.00 0.00 0.00 53 1016.3
20260507191520 24 114 3.2 8.0 0.00 0.00 0.00 54 1016.4
20260507191008 24 117 0.0 9.7 0.00 0.00 0.00 54 1016.4
20260507190506 24 159 3.2 9.7 0.00 0.00 0.00 54 1016.4
20260507190006 23 250 3.2 9.7 0.00 0.00 0.00 54 1016.4
20260507185505 23 129 3.2 8.0 0.00 0.00 0.00 54 1016.4
20260507185003 23 125 1.6 9.7 0.00 0.00 0.00 55 1016.5
20260507184504 23 232 4.8 9.7 0.00 0.00 0.00 55 1016.6
20260507184003 23 135 1.6 8.0 0.00 0.00 0.00 55 1016.6
20260507183003 23 100 1.6 9.7 0.00 0.00 0.00 56 1016.7
20260507182601 23 84 3.2 9.7 0.00 0.00 0.00 56 1016.6
20260507182100 22 104 1.6 8.0 0.00 0.00 0.00 56 1016.7
20260507181559 22 108 3.2 8.0 0.00 0.00 0.00 57 1016.7
20260507181059 22 82 1.6 9.7 0.00 0.00 0.00 56 1016.7
20260507180600 22 110 1.6 9.7 0.00 0.00 0.00 57 1016.7
20260507180100 22 121 1.6 9.7 0.00 0.00 0.00 57 1016.6
20260507175559 22 145 1.6 9.7 0.00 0.00 0.00 57 1016.6
20260507175057 22 134 3.2 8.0 0.00 0.00 0.00 58 1016.7
20260507174607 22 129 4.8 8.0 0.00 0.00 0.00 57 1016.7
20260507174057 22 134 3.2 8.0 0.00 0.00 0.00 57 1016.7
20260507173658 22 119 3.2 8.0 0.00 0.00 0.00 57 1016.8
20260507173132 22 153 1.6 6.4 0.00 0.00 0.00 58 1016.8
20260507172557 22 117 1.6 6.4 0.00 0.00 0.00 59 1016.9
20260507172055 22 138 0.0 8.0 0.00 0.00 0.00 58 1016.8
20260507171553 21 219 0.0 4.8 0.00 0.00 0.00 59 1016.8
20260507171053 21 110 1.6 8.0 0.00 0.00 0.00 59 1016.7
20260507170555 21 165 3.2 8.0 0.00 0.00 0.00 60 1016.6
20260507170054 21 128 1.6 6.4 0.00 0.00 0.00 59 1016.6
20260507165552 21 218 3.2 9.7 0.00 0.00 0.00 60 1016.7
20260507165050 21 148 3.2 9.7 0.00 0.00 0.00 59 1016.8
20260507164557 21 191 1.6 4.8 0.00 0.00 0.00 61 1016.7
20260507164048 20 95 3.2 4.8 0.00 0.00 0.00 61 1016.8
20260507163650 20 201 0.0 6.4 0.00 0.00 0.00 61 1016.8
20260507163146 20 201 1.6 6.4 0.00 0.00 0.00 61 1016.8
20260507162545 20 181 1.6 6.4 0.00 0.00 0.00 62 1016.8
20260507162044 20 236 0.0 8.0 0.00 0.00 0.00 62 1016.8
20260507161552 19 122 0.0 4.8 0.00 0.00 0.00 63 1016.8
20260507161042 19 91 1.6 4.8 0.00 0.00 0.00 62 1016.8
20260507160542 19 92 1.6 3.2 0.00 0.00 0.00 62 1016.9
20260507160059 19 95 0.0 6.4 0.00 0.00 0.00 63 1016.9
20260507155541 18 103 3.2 8.0 0.00 0.00 0.00 63 1016.9
20260507155043 18 120 3.2 4.8 0.00 0.00 0.00 62 1016.9
20260507154541 18 139 0.0 4.8 0.00 0.00 0.00 63 1017.0
20260507154042 18 136 3.2 4.8 0.00 0.00 0.00 64 1017.0
20260507153643 18 96 0.0 4.8 0.00 0.00 0.00 64 1016.9
20260507153044 18 96 0.0 4.8 0.00 0.00 0.00 64 1016.9
20260507152643 18 106 1.6 4.8 0.00 0.00 0.00 64 1016.9
20260507152043 18 113 0.0 3.2 0.00 0.00 0.00 63 1016.8
20260507151543 18 113 0.0 3.2 0.00 0.00 0.00 63 1016.8
20260507151042 18 113 0.0 3.2 0.00 0.00 0.00 63 1016.9
20260507150550 18 113 0.0 3.2 0.00 0.00 0.00 63 1016.9
20260507150043 19 113 0.0 3.2 0.00 0.00 0.00 62 1016.9
20260507145541 18 113 0.0 1.6 0.00 0.00 0.00 63 1016.8
20260507145041 18 113 0.0 1.6 0.00 0.00 0.00 66 1016.8
20260507144548 17 113 0.0 1.6 0.00 0.00 0.00 68 1016.8
20260507144038 17 113 0.0 1.6 0.00 0.00 0.00 68 1016.7
20260507143035 16 113 0.0 3.2 0.00 0.00 0.00 70 1016.7
20260507142534 16 113 0.0 0.0 0.00 0.00 0.00 72 1016.7
20260507142036 15 113 0.0 0.0 0.00 0.00 0.00 72 1016.7
20260507141533 15 113 0.0 1.6 0.00 0.00 0.00 71 1016.7
20260507141033 16 113 0.0 0.0 0.00 0.00 0.00 71 1016.6
20260507140532 15 113 0.0 0.0 0.00 0.00 0.00 72 1016.6
20260507140033 15 113 0.0 0.0 0.00 0.00 0.00 72 1016.5
20260507135528 15 113 0.0 0.0 0.00 0.00 0.00 73 1016.5
20260507135027 14 113 0.0 0.0 0.00 0.00 0.00 75 1016.5
20260507134526 13 113 0.0 1.6 0.00 0.00 0.00 75 1016.4
20260507134027 13 113 0.0 1.6 0.00 0.00 0.00 74 1016.4
20260507133626 13 113 0.0 1.6 0.00 0.00 0.00 74 1016.2
20260507133022 13 113 0.0 3.2 0.00 0.00 0.00 74 1016.3
20260507132521 13 113 0.0 3.2 0.00 0.00 0.00 74 1016.3
20260507132021 13 113 1.6 3.2 0.00 0.00 0.00 74 1016.3
20260507131525 13 113 1.6 3.2 0.00 0.00 0.00 74 1016.2
20260507131021 13 113 1.6 3.2 0.00 0.00 0.00 75 1016.1
20260507130522 13 113 1.6 3.2 0.00 0.00 0.00 75 1016.2
20260507130029 13 113 1.6 1.6 0.00 0.00 0.00 75 1016.1
20260507125521 13 113 0.0 3.2 0.00 0.00 0.00 75 1016.1
20260507125021 13 113 1.6 3.2 0.00 0.00 0.00 75 1016.0
20260507124520 13 113 1.6 1.6 0.00 0.00 0.00 76 1016.0
20260507124019 13 113 0.0 3.2 0.00 0.00 0.00 75 1016.1
20260507123621 13 113 0.0 1.6 0.00 0.00 0.00 75 1016.1
20260507123027 13 113 0.0 1.6 0.00 0.00 0.00 75 1016.1
20260507122519 13 113 1.6 1.6 0.00 0.00 0.00 74 1016.1
20260507122022 13 113 0.0 1.6 0.00 0.00 0.00 74 1016.1
20260507121521 13 113 0.0 1.6 0.00 0.00 0.00 74 1016.0
20260507121121 13 113 1.6 1.6 0.00 0.00 0.00 73 1016.1
20260507120518 13 113 0.0 1.6 0.00 0.00 0.00 73 1016.1
20260507120019 13 113 1.6 3.2 0.00 0.00 0.00 74 1016.2
20260507115519 13 113 1.6 3.2 0.00 0.00 0.00 75 1016.2
20260507115018 13 113 1.6 1.6 0.00 0.00 0.00 75 1016.3
20260507114518 13 113 0.0 1.6 0.00 0.00 0.00 76 1016.2
20260507114119 13 113 0.0 1.6 0.00 0.00 0.00 77 1016.1
20260507113618 13 113 1.6 3.2 0.00 0.00 0.00 77 1016.2
20260507113025 13 113 1.6 3.2 0.00 0.00 0.00 76 1016.1
20260507112518 13 113 1.6 3.2 0.00 0.00 0.00 77 1016.2
20260507112018 13 113 0.0 3.2 0.00 0.00 0.00 78 1016.2
20260507111518 13 113 1.6 3.2 0.00 0.00 0.00 78 1016.3
20260507111017 13 113 1.6 1.6 0.00 0.00 0.00 79 1016.3
20260507110518 13 113 1.6 1.6 0.00 0.00 0.00 79 1016.3
20260507110017 13 113 0.0 1.6 0.00 0.00 0.00 78 1016.4
20260507105517 13 113 1.6 3.2 0.00 0.00 0.00 78 1016.4
20260507105017 13 113 0.0 3.2 0.00 0.00 0.00 79 1016.5
20260507104517 13 113 0.0 3.2 0.00 0.00 0.00 79 1016.5
20260507104017 13 113 1.6 3.2 0.00 0.00 0.00 79 1016.5
20260507103620 13 113 1.6 3.2 0.00 0.00 0.00 79 1016.6
20260507103020 13 113 1.6 1.6 0.00 0.00 0.00 79 1016.6
20260507102519 13 113 0.0 1.6 0.00 0.00 0.00 80 1016.6
20260507102019 13 113 0.0 1.6 0.00 0.00 0.00 80 1016.6
20260507101519 13 113 1.6 1.6 0.00 0.00 0.00 79 1016.6
20260507101023 13 113 0.0 1.6 0.00 0.00 0.00 79 1016.7
20260507100521 13 113 0.0 3.2 0.00 0.00 0.00 79 1016.6
20260507100017 13 113 0.0 3.2 0.00 0.00 0.00 80 1016.6
20260507095518 13 113 0.0 0.0 0.00 0.00 0.00 80 1016.6
20260507095017 13 113 0.0 0.0 0.00 0.00 0.00 80 1016.6
20260507094520 13 113 0.0 1.6 0.00 0.00 0.00 80 1016.6
20260507094016 13 113 0.0 1.6 0.00 0.00 0.00 80 1016.7
20260507093516 13 113 0.0 1.6 0.00 0.00 0.00 81 1016.8
20260507093016 13 113 0.0 1.6 0.00 0.00 0.00 80 1016.8
20260507092517 13 113 0.0 3.2 0.00 0.00 0.00 81 1016.9
20260507092017 13 113 1.6 3.2 0.00 0.00 0.00 81 1016.9
20260507091516 13 113 1.6 3.2 0.00 0.00 0.00 81 1017.0
20260507091016 13 113 0.0 3.2 0.00 0.00 0.00 81 1017.0
20260507090616 13 122 1.6 3.2 0.00 0.00 0.00 81 1017.1
20260507090013 13 123 1.6 1.6 0.00 0.00 0.00 81 1017.1
20260507085512 13 122 0.0 1.6 0.00 0.00 0.00 81 1017.2
20260507085011 13 122 0.0 3.2 0.00 0.00 0.00 81 1017.2
20260507084514 13 122 0.0 3.2 0.00 0.00 0.00 80 1017.3
20260507084014 13 122 0.0 1.6 0.00 0.00 0.00 80 1017.3
20260507083510 13 122 1.6 1.6 0.00 0.00 0.00 80 1017.4
20260507083011 13 122 0.0 1.6 0.00 0.00 0.00 80 1017.5
20260507082511 13 122 0.0 1.6 0.00 0.00 0.00 80 1017.5
20260507082010 13 122 0.0 1.6 0.00 0.00 0.00 80 1017.5
20260507081513 13 123 0.0 1.6 0.00 0.00 0.00 81 1017.5
20260507081010 13 123 0.0 1.6 0.00 0.00 0.00 81 1017.5
20260507080610 13 123 0.0 1.6 0.00 0.00 0.00 80 1017.6
20260507080013 13 122 0.0 1.6 0.00 0.00 0.00 80 1017.6
20260507075510 13 122 0.0 1.6 0.00 0.00 0.00 80 1017.6